Year,Month,Day,Hour,Minute,Value (Times are PST for temperature in C)
2015,08,05,01,44,14.10
2015,08,05,01,45,14.10
2015,08,05,01,46,14.10
2015,08,05,01,47,14.10
2015,08,05,01,48,14.10
2015,08,05,01,49,14.10
2015,08,05,01,50,14.10
2015,08,05,01,51,14.10
2015,08,05,01,52,14.10
2015,08,05,01,53,14.10
2015,08,05,01,54,14.10
2015,08,05,01,55,14.10
2015,08,05,01,56,14.10
2015,08,05,01,57,14.00
2015,08,05,01,58,14.00
2015,08,05,01,59,14.00
2015,08,05,02,00,14.00
2015,08,05,02,01,14.00
2015,08,05,02,02,14.00
2015,08,05,02,03,14.00
2015,08,05,02,04,14.00
2015,08,05,02,05,14.00
2015,08,05,02,06,14.00
2015,08,05,02,07,14.00
2015,08,05,02,08,14.00
2015,08,05,02,09,14.00
2015,08,05,02,10,14.00
2015,08,05,02,11,14.00
2015,08,05,02,12,14.00
2015,08,05,02,13,14.00
2015,08,05,02,14,14.00
2015,08,05,02,15,14.00
2015,08,05,02,16,14.00
2015,08,05,02,17,14.00
2015,08,05,02,18,14.00
2015,08,05,02,19,14.00
2015,08,05,02,20,14.00
2015,08,05,02,21,14.00
2015,08,05,02,22,14.00
2015,08,05,02,23,14.00
2015,08,05,02,24,14.00
2015,08,05,02,25,14.00
2015,08,05,02,26,14.00
2015,08,05,02,27,14.00
2015,08,05,02,28,14.00
2015,08,05,02,29,14.00
2015,08,05,02,30,14.00
2015,08,05,02,31,14.00
2015,08,05,02,32,14.00
2015,08,05,02,33,14.00
2015,08,05,02,34,14.00
2015,08,05,02,35,14.00
2015,08,05,02,36,13.90
2015,08,05,02,37,13.90
2015,08,05,02,38,14.00
2015,08,05,02,39,14.00
2015,08,05,02,40,14.00
2015,08,05,02,41,14.00
2015,08,05,02,42,14.00
2015,08,05,02,43,14.00
2015,08,05,02,44,14.00
2015,08,05,02,45,14.00
2015,08,05,02,46,14.00
2015,08,05,02,47,14.00
2015,08,05,02,48,13.90
2015,08,05,02,49,13.90
2015,08,05,02,50,13.90
2015,08,05,02,51,13.90
2015,08,05,02,52,13.90
2015,08,05,02,53,13.90
2015,08,05,02,54,13.90
2015,08,05,02,55,13.90
2015,08,05,02,56,13.90
2015,08,05,02,57,13.90
2015,08,05,02,58,13.90
2015,08,05,02,59,13.90
2015,08,05,03,00,13.90
2015,08,05,03,01,13.90
2015,08,05,03,02,13.80
2015,08,05,03,03,13.80
2015,08,05,03,04,13.80
2015,08,05,03,05,13.80
2015,08,05,03,06,13.80
2015,08,05,03,07,13.80
2015,08,05,03,08,13.80
2015,08,05,03,09,13.80
2015,08,05,03,10,13.80
2015,08,05,03,11,13.80
2015,08,05,03,12,13.80
2015,08,05,03,13,13.80
2015,08,05,03,14,13.80
2015,08,05,03,15,13.80
2015,08,05,03,16,13.80
2015,08,05,03,17,13.80
2015,08,05,03,18,13.80
2015,08,05,03,19,13.80
2015,08,05,03,20,13.80
2015,08,05,03,21,13.80
2015,08,05,03,22,13.80
2015,08,05,03,23,13.80
2015,08,05,03,24,13.80
2015,08,05,03,25,13.80
2015,08,05,03,26,13.80
2015,08,05,03,27,13.80
2015,08,05,03,28,13.80
2015,08,05,03,29,13.80
2015,08,05,03,30,13.80
2015,08,05,03,31,13.80
2015,08,05,03,32,13.80
2015,08,05,03,33,13.80
2015,08,05,03,34,13.80
2015,08,05,03,35,13.80
2015,08,05,03,36,13.80
2015,08,05,03,37,13.80
2015,08,05,03,38,13.70
2015,08,05,03,39,13.70
2015,08,05,03,40,13.70
2015,08,05,03,41,13.70
2015,08,05,03,42,13.70
2015,08,05,03,43,13.70
2015,08,05,03,44,13.70
2015,08,05,03,45,13.70
2015,08,05,03,46,13.70
2015,08,05,03,47,13.70
2015,08,05,03,48,13.70
2015,08,05,03,49,13.70
2015,08,05,03,50,13.70
2015,08,05,03,51,13.70
2015,08,05,03,52,13.70
2015,08,05,03,53,13.70
2015,08,05,03,54,13.70
2015,08,05,03,55,13.70
2015,08,05,03,56,13.70
2015,08,05,03,57,13.70
2015,08,05,03,58,13.70
2015,08,05,03,59,13.70
2015,08,05,04,00,13.70
2015,08,05,04,01,13.80
2015,08,05,04,02,13.80
2015,08,05,04,03,13.80
2015,08,05,04,04,13.80
2015,08,05,04,05,13.80
2015,08,05,04,06,13.80
2015,08,05,04,07,13.80
2015,08,05,04,08,13.80
2015,08,05,04,09,13.80
2015,08,05,04,10,13.90
2015,08,05,04,11,13.90
2015,08,05,04,12,13.90
2015,08,05,04,13,13.90
2015,08,05,04,14,13.90
2015,08,05,04,15,13.90
2015,08,05,04,16,13.90
2015,08,05,04,17,13.90
2015,08,05,04,18,13.90
2015,08,05,04,19,13.90
2015,08,05,04,20,14.00
2015,08,05,04,21,14.00
2015,08,05,04,22,14.00
2015,08,05,04,23,14.00
2015,08,05,04,24,14.00
2015,08,05,04,25,14.00
2015,08,05,04,26,14.00
2015,08,05,04,27,14.00
2015,08,05,04,28,14.00
2015,08,05,04,29,14.00
2015,08,05,04,30,14.00
2015,08,05,04,31,14.00
2015,08,05,04,32,14.00
2015,08,05,04,33,14.00
2015,08,05,04,34,14.00
2015,08,05,04,35,14.00
2015,08,05,04,36,14.00
2015,08,05,04,37,14.00
2015,08,05,04,38,14.00
2015,08,05,04,39,14.00
2015,08,05,04,40,14.00
2015,08,05,04,41,14.00
2015,08,05,04,42,14.00
2015,08,05,04,43,14.00
2015,08,05,04,44,14.00
2015,08,05,04,45,14.10
2015,08,05,04,46,14.10
2015,08,05,04,47,14.10
2015,08,05,04,48,14.10
2015,08,05,04,49,14.10
2015,08,05,04,50,14.10
2015,08,05,04,51,14.10
2015,08,05,04,52,14.10
2015,08,05,04,53,14.20
2015,08,05,04,54,14.20
2015,08,05,04,55,14.20
2015,08,05,04,56,14.20
2015,08,05,04,57,14.20
2015,08,05,04,58,14.20
2015,08,05,04,59,14.20
2015,08,05,05,00,14.20
2015,08,05,05,01,14.20
2015,08,05,05,02,14.20
2015,08,05,05,03,14.20
2015,08,05,05,04,14.20
2015,08,05,05,05,14.20
2015,08,05,05,06,14.30
2015,08,05,05,07,14.30
2015,08,05,05,08,14.30
2015,08,05,05,09,14.30
2015,08,05,05,10,14.30
2015,08,05,05,11,14.30
2015,08,05,05,12,14.30
2015,08,05,05,13,14.30
2015,08,05,05,14,14.40
2015,08,05,05,15,14.40
2015,08,05,05,16,14.40
2015,08,05,05,17,14.40
2015,08,05,05,18,14.40
2015,08,05,05,19,14.40
2015,08,05,05,20,14.40
2015,08,05,05,21,14.40
2015,08,05,05,22,14.50
2015,08,05,05,23,14.50
2015,08,05,05,24,14.50
2015,08,05,05,25,14.50
2015,08,05,05,26,14.50
2015,08,05,05,27,14.50
2015,08,05,05,28,14.50
2015,08,05,05,29,14.50
2015,08,05,05,30,14.50
2015,08,05,05,31,14.50
2015,08,05,05,32,14.50
2015,08,05,05,33,14.50
2015,08,05,05,34,14.50
2015,08,05,05,35,14.50
2015,08,05,05,36,14.50
2015,08,05,05,37,14.50
2015,08,05,05,38,14.50
2015,08,05,05,39,14.50
2015,08,05,05,40,14.50
2015,08,05,05,41,14.50
2015,08,05,05,42,14.50
2015,08,05,05,43,14.50
2015,08,05,05,44,14.50
2015,08,05,05,45,14.50
2015,08,05,05,46,14.50
2015,08,05,05,47,14.50
2015,08,05,05,48,14.50
2015,08,05,05,49,14.50
2015,08,05,05,50,14.50
2015,08,05,05,51,14.50
2015,08,05,05,52,14.50
2015,08,05,05,53,14.50
2015,08,05,05,54,14.50
2015,08,05,05,55,14.50
2015,08,05,05,56,14.50
2015,08,05,05,57,14.50
2015,08,05,05,58,14.50
2015,08,05,05,59,14.50
2015,08,05,06,00,14.50
2015,08,05,06,01,14.50
2015,08,05,06,02,14.50
2015,08,05,06,03,14.50
2015,08,05,06,04,14.50
2015,08,05,06,05,14.50
2015,08,05,06,06,14.50
2015,08,05,06,07,14.60
2015,08,05,06,08,14.60
2015,08,05,06,09,14.60
2015,08,05,06,10,14.60
2015,08,05,06,11,14.60
2015,08,05,06,12,14.60
2015,08,05,06,13,14.60
2015,08,05,06,14,14.60
2015,08,05,06,15,14.60
2015,08,05,06,16,14.60
2015,08,05,06,17,14.60
2015,08,05,06,18,14.60
2015,08,05,06,19,14.60
2015,08,05,06,20,14.60
2015,08,05,06,21,14.60
2015,08,05,06,22,14.60
2015,08,05,06,23,14.60
2015,08,05,06,24,14.60
2015,08,05,06,25,14.60
2015,08,05,06,26,14.60
2015,08,05,06,27,14.50
2015,08,05,06,28,14.50
2015,08,05,06,29,14.50
2015,08,05,06,30,14.50
2015,08,05,06,31,14.50
2015,08,05,06,32,14.50
2015,08,05,06,33,14.50
2015,08,05,06,34,14.50
2015,08,05,06,35,14.50
2015,08,05,06,36,14.50
2015,08,05,06,37,14.50
2015,08,05,06,38,14.50
2015,08,05,06,39,14.50
2015,08,05,06,40,14.50
2015,08,05,06,41,14.50
2015,08,05,06,42,14.50
2015,08,05,06,43,14.50
2015,08,05,06,44,14.50
2015,08,05,06,45,14.50
2015,08,05,06,46,14.50
2015,08,05,06,47,14.50
2015,08,05,06,48,14.50
2015,08,05,06,49,14.50
2015,08,05,06,50,14.50
2015,08,05,06,51,14.50
2015,08,05,06,52,14.50
2015,08,05,06,53,14.50
2015,08,05,06,54,14.50
2015,08,05,06,55,14.50
2015,08,05,06,56,14.50
2015,08,05,06,57,14.50
2015,08,05,06,58,14.50
2015,08,05,06,59,14.50
2015,08,05,07,00,14.50
2015,08,05,07,01,14.60
2015,08,05,07,02,14.60
2015,08,05,07,03,14.60
2015,08,05,07,04,14.60
2015,08,05,07,05,14.60
2015,08,05,07,06,14.60
2015,08,05,07,07,14.60
2015,08,05,07,08,14.60
2015,08,05,07,09,14.60
2015,08,05,07,10,14.70
2015,08,05,07,11,14.70
2015,08,05,07,12,14.70
2015,08,05,07,13,14.70
2015,08,05,07,14,14.70
2015,08,05,07,15,14.70
2015,08,05,07,16,14.80
2015,08,05,07,17,14.80
2015,08,05,07,18,14.80
2015,08,05,07,19,14.80
2015,08,05,07,20,14.80
2015,08,05,07,21,14.80
2015,08,05,07,22,14.80
2015,08,05,07,23,14.80
2015,08,05,07,24,14.80
2015,08,05,07,25,14.80
2015,08,05,07,26,14.80
2015,08,05,07,27,14.80
2015,08,05,07,28,14.80
2015,08,05,07,29,14.80
2015,08,05,07,30,14.80
2015,08,05,07,31,14.80
2015,08,05,07,32,14.80
2015,08,05,07,33,14.80
2015,08,05,07,34,14.90
2015,08,05,07,35,14.90
2015,08,05,07,36,14.90
2015,08,05,07,37,14.90
2015,08,05,07,38,14.90
2015,08,05,07,39,14.90
2015,08,05,07,40,14.90
2015,08,05,07,41,14.90
2015,08,05,07,42,14.90
2015,08,05,07,43,14.90
2015,08,05,07,44,14.90
2015,08,05,07,45,14.90
2015,08,05,07,46,14.90
2015,08,05,07,47,14.90
2015,08,05,07,48,14.90
2015,08,05,07,49,14.90
2015,08,05,07,50,14.90
2015,08,05,07,51,14.90
2015,08,05,07,52,15.00
2015,08,05,07,53,15.00
2015,08,05,07,54,15.00
2015,08,05,07,55,15.00
2015,08,05,07,56,15.10
2015,08,05,07,57,15.10
2015,08,05,07,58,15.10
2015,08,05,07,59,15.10
2015,08,05,08,00,15.10
2015,08,05,08,01,15.10
2015,08,05,08,02,15.10
2015,08,05,08,03,15.10
2015,08,05,08,04,15.20
2015,08,05,08,05,15.20
2015,08,05,08,06,15.20
2015,08,05,08,07,15.20
2015,08,05,08,08,15.20
2015,08,05,08,09,15.20
2015,08,05,08,10,15.20
2015,08,05,08,11,15.20
2015,08,05,08,12,15.20
2015,08,05,08,13,15.20
2015,08,05,08,14,15.20
2015,08,05,08,15,15.20
2015,08,05,08,16,15.20
2015,08,05,08,17,15.30
2015,08,05,08,18,15.30
2015,08,05,08,19,15.30
2015,08,05,08,20,15.30
2015,08,05,08,21,15.30
2015,08,05,08,22,15.30
2015,08,05,08,23,15.30
2015,08,05,08,24,15.30
2015,08,05,08,25,15.30
2015,08,05,08,26,15.30
2015,08,05,08,27,15.30
2015,08,05,08,28,15.30
2015,08,05,08,29,15.30
2015,08,05,08,30,15.30
2015,08,05,08,31,15.30
2015,08,05,08,32,15.30
2015,08,05,08,33,15.30
2015,08,05,08,34,15.30
2015,08,05,08,35,15.30
2015,08,05,08,36,15.30
2015,08,05,08,37,15.30
2015,08,05,08,38,15.30
2015,08,05,08,39,15.30
2015,08,05,08,40,15.30
2015,08,05,08,41,15.30
2015,08,05,08,42,15.30
2015,08,05,08,43,15.30
2015,08,05,08,44,15.30
2015,08,05,08,45,15.30
2015,08,05,08,46,15.30
2015,08,05,08,47,15.30
2015,08,05,08,48,15.30
2015,08,05,08,49,15.30
2015,08,05,08,50,15.30
2015,08,05,08,51,15.30
2015,08,05,08,52,15.30
2015,08,05,08,53,15.30
2015,08,05,08,54,15.30
2015,08,05,08,55,15.30
2015,08,05,08,56,15.30
2015,08,05,08,57,15.30
2015,08,05,08,58,15.30
2015,08,05,08,59,15.30
2015,08,05,09,00,15.30
2015,08,05,09,01,15.30
2015,08,05,09,02,15.30
2015,08,05,09,03,15.40
2015,08,05,09,04,15.40
2015,08,05,09,05,15.40
2015,08,05,09,06,15.50
2015,08,05,09,07,15.50
2015,08,05,09,08,15.50
2015,08,05,09,09,15.50
2015,08,05,09,10,15.50
2015,08,05,09,11,15.50
2015,08,05,09,12,15.50
2015,08,05,09,13,15.50
2015,08,05,09,14,15.50
2015,08,05,09,15,15.50
2015,08,05,09,16,15.50
2015,08,05,09,17,15.40
2015,08,05,09,18,15.40
2015,08,05,09,19,15.40
2015,08,05,09,20,15.30
2015,08,05,09,21,15.30
2015,08,05,09,22,15.30
2015,08,05,09,23,15.40
2015,08,05,09,24,15.40
2015,08,05,09,25,15.40
2015,08,05,09,26,15.40
2015,08,05,09,27,15.40
2015,08,05,09,28,15.40
2015,08,05,09,29,15.50
2015,08,05,09,30,15.50
2015,08,05,09,31,15.50
2015,08,05,09,32,15.50
2015,08,05,09,33,15.50
2015,08,05,09,34,15.50
2015,08,05,09,35,15.50
2015,08,05,09,36,15.50
2015,08,05,09,37,15.50
2015,08,05,09,38,15.50
2015,08,05,09,39,15.50
2015,08,05,09,40,15.50
2015,08,05,09,41,15.40
2015,08,05,09,42,15.40
2015,08,05,09,43,15.40
2015,08,05,09,44,15.40
2015,08,05,09,45,15.40
2015,08,05,09,46,15.50
2015,08,05,09,47,15.50
2015,08,05,09,48,15.50
2015,08,05,09,49,15.50
2015,08,05,09,50,15.50
2015,08,05,09,51,15.50
2015,08,05,09,52,15.60
2015,08,05,09,53,15.60
2015,08,05,09,54,15.60
2015,08,05,09,55,15.50
2015,08,05,09,56,15.50
2015,08,05,09,57,15.50
2015,08,05,09,58,15.60
2015,08,05,09,59,15.60
2015,08,05,10,00,15.60
2015,08,05,10,01,15.60
2015,08,05,10,02,15.60
2015,08,05,10,03,15.70
2015,08,05,10,04,15.70
2015,08,05,10,05,15.80
2015,08,05,10,06,15.80
2015,08,05,10,07,15.80
2015,08,05,10,08,15.80
2015,08,05,10,09,15.80
2015,08,05,10,10,15.90
2015,08,05,10,11,15.90
2015,08,05,10,12,15.90
2015,08,05,10,13,15.90
2015,08,05,10,14,16.00
2015,08,05,10,15,16.10
2015,08,05,10,16,16.10
2015,08,05,10,17,16.10
2015,08,05,10,18,16.10
2015,08,05,10,19,16.30
2015,08,05,10,20,16.30
2015,08,05,10,21,16.30
2015,08,05,10,22,16.40
2015,08,05,10,23,16.40
2015,08,05,10,24,16.40
2015,08,05,10,25,16.40
2015,08,05,10,26,16.40
2015,08,05,10,27,16.50
2015,08,05,10,28,16.60
2015,08,05,10,29,16.60
2015,08,05,10,30,16.60
2015,08,05,10,31,16.70
2015,08,05,10,32,16.70
2015,08,05,10,33,16.70
2015,08,05,10,34,16.80
2015,08,05,10,35,16.80
2015,08,05,10,36,16.80
2015,08,05,10,37,16.90
2015,08,05,10,38,16.90
2015,08,05,10,39,16.90
2015,08,05,10,40,16.90
2015,08,05,10,41,16.90
2015,08,05,10,42,16.90
2015,08,05,10,43,17.00
2015,08,05,10,44,17.10
2015,08,05,10,45,17.20
2015,08,05,10,46,17.30
2015,08,05,10,47,17.20
2015,08,05,10,48,17.20
2015,08,05,10,49,17.00
2015,08,05,10,50,17.00
2015,08,05,10,51,16.90
2015,08,05,10,52,16.90
2015,08,05,10,53,16.90
2015,08,05,10,54,17.00
2015,08,05,10,55,17.00
2015,08,05,10,56,17.00
2015,08,05,10,57,17.00
2015,08,05,10,58,17.00
2015,08,05,10,59,17.00
2015,08,05,11,00,16.90
2015,08,05,11,01,16.90
2015,08,05,11,02,16.80
2015,08,05,11,03,16.70
2015,08,05,11,04,16.70
2015,08,05,11,05,16.70
2015,08,05,11,06,16.70
2015,08,05,11,07,16.70
2015,08,05,11,08,16.70
2015,08,05,11,09,16.70
2015,08,05,11,10,16.70
2015,08,05,11,11,16.70
2015,08,05,11,12,16.60
2015,08,05,11,13,16.60
2015,08,05,11,14,16.60
2015,08,05,11,15,16.60
2015,08,05,11,16,16.60
2015,08,05,11,17,16.60
2015,08,05,11,18,16.60
2015,08,05,11,19,16.60
2015,08,05,11,20,16.60
2015,08,05,11,21,16.50
2015,08,05,11,22,16.40
2015,08,05,11,23,16.40
2015,08,05,11,24,16.40
2015,08,05,11,25,16.40
2015,08,05,11,26,16.40
2015,08,05,11,27,16.40
2015,08,05,11,28,16.40
2015,08,05,11,29,16.40
2015,08,05,11,30,16.30
2015,08,05,11,31,16.30
2015,08,05,11,32,16.30
2015,08,05,11,33,16.30
2015,08,05,11,34,16.30
2015,08,05,11,35,16.30
2015,08,05,11,36,16.30
2015,08,05,11,37,16.20
2015,08,05,11,38,16.20
2015,08,05,11,39,16.20
2015,08,05,11,40,16.20
2015,08,05,11,41,16.20
2015,08,05,11,42,16.20
2015,08,05,11,43,16.20
2015,08,05,11,44,16.20
2015,08,05,11,45,16.20
2015,08,05,11,46,16.20
2015,08,05,11,47,16.20
2015,08,05,11,48,16.20
2015,08,05,11,49,16.20
2015,08,05,11,50,16.10
2015,08,05,11,51,16.10
2015,08,05,11,52,16.10
2015,08,05,11,53,16.10
2015,08,05,11,54,16.10
2015,08,05,11,55,16.10
2015,08,05,11,56,16.20
2015,08,05,11,57,16.20
2015,08,05,11,58,16.20
2015,08,05,11,59,16.30
2015,08,05,12,00,16.30
2015,08,05,12,01,16.30
2015,08,05,12,02,16.30
2015,08,05,12,03,16.30
2015,08,05,12,04,16.30
2015,08,05,12,05,16.20
2015,08,05,12,06,16.20
2015,08,05,12,07,16.20
2015,08,05,12,08,16.20
2015,08,05,12,09,16.20
2015,08,05,12,10,16.20
2015,08,05,12,11,16.20
2015,08,05,12,12,16.20
2015,08,05,12,13,16.20
2015,08,05,12,14,16.20
2015,08,05,12,15,16.20
2015,08,05,12,16,16.20
2015,08,05,12,17,16.20
2015,08,05,12,18,16.30
2015,08,05,12,19,16.30
2015,08,05,12,20,16.20
2015,08,05,12,21,16.30
2015,08,05,12,22,16.30
2015,08,05,12,23,16.30
2015,08,05,12,24,16.30
2015,08,05,12,25,16.30
2015,08,05,12,26,16.30
2015,08,05,12,27,16.30
2015,08,05,12,28,16.40
2015,08,05,12,29,16.40
2015,08,05,12,30,16.40
2015,08,05,12,31,16.40
2015,08,05,12,32,16.40
2015,08,05,12,33,16.40
2015,08,05,12,34,16.40
2015,08,05,12,35,16.40
2015,08,05,12,36,16.40
2015,08,05,12,37,16.40
2015,08,05,12,38,16.50
2015,08,05,12,39,16.60
2015,08,05,12,40,16.60
2015,08,05,12,41,16.60
2015,08,05,12,42,16.60
2015,08,05,12,43,16.60
2015,08,05,12,44,16.60
2015,08,05,12,45,16.60
2015,08,05,12,46,16.60
2015,08,05,12,47,16.60
2015,08,05,12,48,16.60
2015,08,05,12,49,16.60
2015,08,05,12,50,16.60
2015,08,05,12,51,16.70
2015,08,05,12,52,16.70
2015,08,05,12,53,16.70
2015,08,05,12,54,16.70
2015,08,05,12,55,16.70
2015,08,05,12,56,16.70
2015,08,05,12,57,16.70
2015,08,05,12,58,16.70
2015,08,05,12,59,16.70
2015,08,05,13,00,16.70
2015,08,05,13,01,16.70
2015,08,05,13,02,16.70
2015,08,05,13,03,16.70
2015,08,05,13,04,16.70
2015,08,05,13,05,16.70
2015,08,05,13,06,16.70
2015,08,05,13,07,16.70
2015,08,05,13,08,16.70
2015,08,05,13,09,16.80
2015,08,05,13,10,16.80
2015,08,05,13,11,16.80
2015,08,05,13,12,16.80
2015,08,05,13,13,16.80
2015,08,05,13,14,16.80
2015,08,05,13,15,16.80
2015,08,05,13,16,16.80
2015,08,05,13,17,16.80
2015,08,05,13,18,16.90
2015,08,05,13,19,16.90
2015,08,05,13,20,16.90
2015,08,05,13,21,16.90
2015,08,05,13,22,16.90
2015,08,05,13,23,16.90
2015,08,05,13,24,16.90
2015,08,05,13,25,16.90
2015,08,05,13,26,16.90
2015,08,05,13,27,16.90
2015,08,05,13,28,17.00
2015,08,05,13,29,17.00
2015,08,05,13,30,17.00
2015,08,05,13,31,17.00
2015,08,05,13,32,17.10
2015,08,05,13,33,17.10
2015,08,05,13,34,17.10
2015,08,05,13,35,17.10
2015,08,05,13,36,17.10
2015,08,05,13,37,17.10
2015,08,05,13,38,17.20
2015,08,05,13,39,17.10
2015,08,05,13,40,17.10
2015,08,05,13,41,17.10
2015,08,05,13,42,17.10
2015,08,05,13,43,17.10
2015,08,05,13,44,17.10
2015,08,05,13,45,17.10
2015,08,05,13,46,17.10
2015,08,05,13,47,17.10
2015,08,05,13,48,17.10
2015,08,05,13,49,17.00
2015,08,05,13,50,17.00
2015,08,05,13,51,17.00
2015,08,05,13,52,16.90
2015,08,05,13,53,16.90
2015,08,05,13,54,16.90
2015,08,05,13,55,16.90
2015,08,05,13,56,16.90
2015,08,05,13,57,16.90
2015,08,05,13,58,16.90
2015,08,05,13,59,16.80
2015,08,05,14,00,16.80
2015,08,05,14,01,16.80
2015,08,05,14,02,16.90
2015,08,05,14,03,16.90
2015,08,05,14,04,16.90
2015,08,05,14,05,16.90
2015,08,05,14,06,16.90
2015,08,05,14,07,16.90
2015,08,05,14,08,17.00
2015,08,05,14,09,17.00
2015,08,05,14,10,17.00
2015,08,05,14,11,17.00
2015,08,05,14,12,17.00
2015,08,05,14,13,17.00
2015,08,05,14,14,17.00
2015,08,05,14,15,17.00
2015,08,05,14,16,17.00
2015,08,05,14,17,17.00
2015,08,05,14,18,17.00
2015,08,05,14,19,17.00
2015,08,05,14,20,17.00
2015,08,05,14,21,17.00
2015,08,05,14,22,17.00
2015,08,05,14,23,17.00
2015,08,05,14,24,17.00
2015,08,05,14,25,17.00
2015,08,05,14,26,17.10
2015,08,05,14,27,17.10
2015,08,05,14,28,17.10
2015,08,05,14,29,17.10
2015,08,05,14,30,17.10
2015,08,05,14,31,17.10
2015,08,05,14,32,17.20
2015,08,05,14,33,17.20
2015,08,05,14,34,17.20
2015,08,05,14,35,17.20
2015,08,05,14,36,17.20
2015,08,05,14,37,17.20
2015,08,05,14,38,17.30
2015,08,05,14,39,17.30
2015,08,05,14,40,17.30
2015,08,05,14,41,17.30
2015,08,05,14,42,17.30
2015,08,05,14,43,17.30
2015,08,05,14,44,17.30
2015,08,05,14,45,17.30
2015,08,05,14,46,17.30
2015,08,05,14,47,17.30
2015,08,05,14,48,17.30
2015,08,05,14,49,17.30
2015,08,05,14,50,17.30
2015,08,05,14,51,17.40
2015,08,05,14,52,17.40
2015,08,05,14,53,17.40
2015,08,05,14,54,17.40
2015,08,05,14,55,17.40
2015,08,05,14,56,17.50
2015,08,05,14,57,17.50
2015,08,05,14,58,17.50
2015,08,05,14,59,17.60
2015,08,05,15,00,17.60
2015,08,05,15,01,17.70
2015,08,05,15,02,17.70
2015,08,05,15,03,17.70
2015,08,05,15,04,17.70
2015,08,05,15,05,17.80
2015,08,05,15,06,17.80
2015,08,05,15,07,17.90
2015,08,05,15,08,17.90
2015,08,05,15,09,17.90
2015,08,05,15,10,17.90
2015,08,05,15,11,17.90
2015,08,05,15,12,17.90
2015,08,05,15,13,17.90
2015,08,05,15,14,18.00
2015,08,05,15,15,18.10
2015,08,05,15,16,18.10
2015,08,05,15,17,18.10
2015,08,05,15,18,18.10
2015,08,05,15,19,18.10
2015,08,05,15,20,18.00
2015,08,05,15,21,17.90
2015,08,05,15,22,18.00
2015,08,05,15,23,18.10
2015,08,05,15,24,18.10
2015,08,05,15,25,18.10
2015,08,05,15,26,18.10
2015,08,05,15,27,18.10
2015,08,05,15,28,18.10
2015,08,05,15,29,18.10
2015,08,05,15,30,18.20
2015,08,05,15,31,18.20
2015,08,05,15,32,18.20
2015,08,05,15,33,18.20
2015,08,05,15,34,18.20
2015,08,05,15,35,18.10
2015,08,05,15,36,18.10
2015,08,05,15,37,18.00
2015,08,05,15,38,17.90
2015,08,05,15,39,17.90
2015,08,05,15,40,17.90
2015,08,05,15,41,17.90
2015,08,05,15,42,17.90
2015,08,05,15,43,17.80
2015,08,05,15,44,17.80
2015,08,05,15,45,17.80
2015,08,05,15,46,17.70
2015,08,05,15,47,17.70
2015,08,05,15,48,17.70
2015,08,05,15,49,17.70
2015,08,05,15,50,17.70
2015,08,05,15,51,17.70
2015,08,05,15,52,17.70
2015,08,05,15,53,17.70
2015,08,05,15,54,17.70
2015,08,05,15,55,17.70
2015,08,05,15,56,17.70
2015,08,05,15,57,17.70
2015,08,05,15,58,17.70
2015,08,05,15,59,17.80
2015,08,05,16,00,17.80
2015,08,05,16,01,17.80
2015,08,05,16,02,17.80
2015,08,05,16,03,17.80
2015,08,05,16,04,17.80
2015,08,05,16,05,17.80
2015,08,05,16,06,17.90
2015,08,05,16,07,17.90
2015,08,05,16,08,17.90
2015,08,05,16,09,17.90
2015,08,05,16,10,17.90
2015,08,05,16,11,17.90
2015,08,05,16,12,17.90
2015,08,05,16,13,17.90
2015,08,05,16,14,17.90
2015,08,05,16,15,17.80
2015,08,05,16,16,17.80
2015,08,05,16,17,17.80
2015,08,05,16,18,17.80
2015,08,05,16,19,17.80
2015,08,05,16,20,17.80
2015,08,05,16,21,17.80
2015,08,05,16,22,17.80
2015,08,05,16,23,17.80
2015,08,05,16,24,17.80
2015,08,05,16,25,17.80
2015,08,05,16,26,17.80
2015,08,05,16,27,17.80
2015,08,05,16,28,17.80
2015,08,05,16,29,17.80
2015,08,05,16,30,17.70
2015,08,05,16,31,17.70
2015,08,05,16,32,17.70
2015,08,05,16,33,17.70
2015,08,05,16,34,17.70
2015,08,05,16,35,17.70
2015,08,05,16,36,17.80
2015,08,05,16,37,17.80
2015,08,05,16,38,17.70
2015,08,05,16,39,17.70
2015,08,05,16,40,17.70
2015,08,05,16,41,17.60
2015,08,05,16,42,17.60
2015,08,05,16,43,17.60
2015,08,05,16,44,17.60
2015,08,05,16,45,17.60
2015,08,05,16,46,17.60
2015,08,05,16,47,17.70
2015,08,05,16,48,17.70
2015,08,05,16,49,17.70
2015,08,05,16,50,17.70
2015,08,05,16,51,17.70
2015,08,05,16,52,17.70
2015,08,05,16,53,17.60
2015,08,05,16,54,17.60
2015,08,05,16,55,17.60
2015,08,05,16,56,17.60
2015,08,05,16,57,17.60
2015,08,05,16,58,17.60
2015,08,05,16,59,17.60
2015,08,05,17,00,17.60
2015,08,05,17,01,17.60
2015,08,05,17,02,17.60
2015,08,05,17,03,17.50
2015,08,05,17,04,17.50
2015,08,05,17,05,17.50
2015,08,05,17,06,17.50
2015,08,05,17,07,17.50
2015,08,05,17,08,17.50
2015,08,05,17,09,17.50
2015,08,05,17,10,17.50
2015,08,05,17,11,17.50
2015,08,05,17,12,17.50
2015,08,05,17,13,17.50
2015,08,05,17,14,17.50
2015,08,05,17,15,17.50
2015,08,05,17,16,17.50
2015,08,05,17,17,17.50
2015,08,05,17,18,17.50
2015,08,05,17,19,17.50
2015,08,05,17,20,17.50
2015,08,05,17,21,17.50
2015,08,05,17,22,17.50
2015,08,05,17,23,17.50
2015,08,05,17,24,17.50
2015,08,05,17,25,17.50
2015,08,05,17,26,17.50
2015,08,05,17,27,17.50
2015,08,05,17,28,17.50
2015,08,05,17,29,17.50
2015,08,05,17,30,17.50
2015,08,05,17,31,17.60
2015,08,05,17,32,17.60
2015,08,05,17,33,17.60
2015,08,05,17,34,17.70
2015,08,05,17,35,17.70
2015,08,05,17,36,17.70
2015,08,05,17,37,17.70
2015,08,05,17,38,17.70
2015,08,05,17,39,17.60
2015,08,05,17,40,17.60
2015,08,05,17,41,17.60
2015,08,05,17,42,17.60
2015,08,05,17,43,17.60
2015,08,05,17,44,17.60
2015,08,05,17,45,17.60
2015,08,05,17,46,17.60
2015,08,05,17,47,17.60
2015,08,05,17,48,17.60
2015,08,05,17,49,17.60
2015,08,05,17,50,17.60
2015,08,05,17,51,17.50
2015,08,05,17,52,17.50
2015,08,05,17,53,17.50
2015,08,05,17,54,17.50
2015,08,05,17,55,17.50
2015,08,05,17,56,17.50
2015,08,05,17,57,17.50
2015,08,05,17,58,17.60
2015,08,05,17,59,17.60
2015,08,05,18,00,17.60
2015,08,05,18,01,17.60
2015,08,05,18,02,17.60
2015,08,05,18,03,17.60
2015,08,05,18,04,17.60
2015,08,05,18,05,17.60
2015,08,05,18,06,17.60
2015,08,05,18,07,17.50
2015,08,05,18,08,17.50
2015,08,05,18,09,17.50
2015,08,05,18,10,17.50
2015,08,05,18,11,17.50
2015,08,05,18,12,17.60
2015,08,05,18,13,17.60
2015,08,05,18,14,17.50
2015,08,05,18,15,17.50
2015,08,05,18,16,17.50
2015,08,05,18,17,17.50
2015,08,05,18,18,17.50
2015,08,05,18,19,17.50
2015,08,05,18,20,17.50
2015,08,05,18,21,17.50
2015,08,05,18,22,17.50
2015,08,05,18,23,17.50
2015,08,05,18,24,17.60
2015,08,05,18,25,17.60
2015,08,05,18,26,17.60
2015,08,05,18,27,17.60
2015,08,05,18,28,17.60
2015,08,05,18,29,17.60
2015,08,05,18,30,17.60
2015,08,05,18,31,17.60
2015,08,05,18,32,17.50
2015,08,05,18,33,17.50
2015,08,05,18,34,17.50
2015,08,05,18,35,17.50
2015,08,05,18,36,17.50
2015,08,05,18,37,17.50
2015,08,05,18,38,17.50
2015,08,05,18,39,17.50
2015,08,05,18,40,17.50
2015,08,05,18,41,17.40
2015,08,05,18,42,17.40
2015,08,05,18,43,17.40
2015,08,05,18,44,17.40
2015,08,05,18,45,17.40
2015,08,05,18,46,17.40
2015,08,05,18,47,17.40
2015,08,05,18,48,17.30
2015,08,05,18,49,17.30
2015,08,05,18,50,17.30
2015,08,05,18,51,17.30
2015,08,05,18,52,17.30
2015,08,05,18,53,17.30
2015,08,05,18,54,17.30
2015,08,05,18,55,17.30
2015,08,05,18,56,17.30
2015,08,05,18,57,17.40
2015,08,05,18,58,17.40
2015,08,05,18,59,17.40
2015,08,05,19,00,17.40
2015,08,05,19,01,17.40
2015,08,05,19,02,17.40
2015,08,05,19,03,17.40